Probability
0 0 0 0 0 0 0 0 0 0 0 0 0 0 0 0 0 0 0 0 0 0 0 0 0 0 3 6 6 6 10 10 10 16 26 29 35 35
0 0 0 0 0 0 0 0 0 0 0 0 0 0 0 0 0 0 0 0 0 0 0 0 0 0 0 0 0 0 3 6 10 6 6 3 6 19
0 0 0 0 0 0 0 0 0 0 0 0 0 0 0 0 0 0 0 0 0 0 0 0 0 0 0 0 0 0 0 0 0 0 3 3 3 3
0 0 0 0 0 0 0 0 0 0 0 0 0 0 0 0 0 0 0 0 0 0 0 0 0 0 0 0 0 0 0 0 0 0 0 0 3 3
0 0 0 0 0 0 0 0 0 0 0 0 0 0 0 0 0 0 0 0 0 0 0 0 0 0 0 0 0 0 0 0 0 0 0 0 0 0
0 0 0 0 0 0 0 0 0 0 0 0 0 0 0 0 0 0 0 0 0 0 0 0 0 0 0 0 0 0 0 0 0 0 0 0 0 0
0 0 0 0 0 0 0 0 0 0 0 0 0 0 0 0 0 0 0 0 0 0 0 0 0 0 0 0 0 0 0 0 0 0 0 0 0 0
0 0 0 0 0 0 0 0 0 0 0 0 0 0 0 0 0 0 0 0 0 0 0 0 0 0 0 0 0 0 0 0 0 0 0 0 0 0
0 0 0 0 0 0 0 0 0 0 0 0 0 0 0 0 0 0 0 0 0 0 0 0 0 0 0 0 0 0 0 0 0 0 0 0 0 0
0 0 0 0 0 0 0 0 0 0 0 0 0 0 0 0 0 0 0 0 0 0 0 0 0 0 0 0 0 0 0 0 0 0 0 0 0 0
0 0 0 0 0 0 0 0 0 0 0 0 0 0 0 0 0 0 0 0 0 0 0 0 0 0 0 0 0 0 0 0 0 0 0 0 0 0
0 0 0 0 0 0 0 0 0 0 0 0 0 0 0 0 0 0 0 0 0 0 0 0 0 0 0 0 0 0 0 0 0 0 0 0 0 0
0 0 0 0 0 0 0 0 0 0 0 0 0 0 0 0 0 0 0 0 0 0 0 0 0 0 0 0 0 0 0 0 0 0 0 0 0 0
0 0 0 0 0 0 0 0 0 0 0 0 0 0 0 0 0 0 0 0 0 0 0 0 0 0 0 0 0 0 0 0 0 0 0 0 0 0
0 0 0 0 0 0 0 0 0 0 0 0 0 0 0 0 0 0 0 0 0 0 0 0 0 0 0 0 0 0 0 0 0 0 0 0 0 0
0 0 0 0 0 0 0 0 0 0 0 0 0 0 0 0 0 0 0 0 0 0 0 0 0 0 0 0 0 0 0 0 0 0 0 0 0 0
0 0 0 0 0 0 0 0 0 0 0 0 0 0 0 0 0 0 0 0 0 0 0 0 0 0 0 0 0 0 0 0 0 0 0 0 0 0
0 0 0 0 0 0 0 0 0 0 0 0 0 0 0 0 0 0 0 0 0 0 0 0 0 0 0 0 0 0 0 0 0 0 0 0 0 0
0 0 0 0 0 0 0 0 0 0 0 0 0 0 0 0 0 0 0 0 0 0 0 0 0 0 0 0 0 0 0 0 0 0 0 0 0 0
0 0 0 0 0 0 0 0 0 0 0 0 0 0 0 0 0 0 0 0 0 0 0 0 0 0 0 0 0 0 0 0 0 0 0 0 0 0
0 0 0 0 0 0 0 0 0 0 0 0 0 0 0 0 0 0 0 0 0 0 0 0 0 0 0 0 0 0 0 0 0 0 0 0 0 0
0 0 0 0 0 0 0 0 0 0 0 0 0 0 0 0 0 0 0 0 0 0 0 0 0 0 0 0 0 0 0 0 0 0 0 0 0 0
0 0 0 0 0 0 0 0 0 0 0 0 0 0 0 0 0 0 0 0 0 0 0 0 0 0 0 0 0 0 0 0 0 0 0 0 0 0
Height
5769 5769 5769 5771 5772 5774 5776 5778 5782 5784 5787 5791 5794 5797 5801 5804 5808 5812 5815 5819 5823 5826 5830 5833 5836 5838 5841 5844 5847 5849 5852 5854 5856 5858 5860 5862 5864 5866
5768 5768 5768 5769 5770 5772 5774 5776 5778 5781 5784 5787 5790 5793 5797 5800 5803 5807 5810 5814 5817 5820 5824 5827 5830 5833 5835 5838 5841 5843 5846 5848 5850 5852 5854 5856 5858 5859
5768 5767 5768 5768 5769 5770 5772 5774 5776 5778 5781 5784 5787 5790 5792 5796 5799 5802 5805 5809 5812 5815 5818 5821 5824 5827 5829 5832 5834 5837 5839 5841 5843 5845 5847 5849 5851 5853
5768 5767 5767 5767 5768 5769 5770 5771 5773 5776 5778 5781 5783 5786 5789 5791 5794 5797 5800 5803 5806 5809 5812 5815 5818 5821 5823 5826 5828 5830 5832 5834 5836 5838 5840 5842 5844 5845
5768 5767 5766 5766 5767 5767 5768 5769 5771 5773 5775 5777 5779 5782 5784 5787 5790 5793 5795 5798 5801 5804 5806 5809 5812 5814 5817 5819 5821 5823 5825 5827 5829 5831 5832 5834 5836 5837
5767 5766 5766 5765 5765 5766 5766 5767 5769 5770 5772 5774 5775 5777 5780 5782 5785 5788 5790 5793 5796 5798 5801 5803 5805 5807 5810 5812 5814 5816 5818 5819 5821 5823 5824 5826 5827 5828
5767 5766 5765 5764 5764 5764 5764 5765 5766 5767 5768 5770 5771 5773 5775 5777 5780 5782 5785 5787 5790 5792 5794 5797 5799 5801 5802 5804 5806 5808 5810 5811 5813 5814 5816 5817 5818 5820
5766 5764 5763 5763 5762 5762 5762 5762 5763 5764 5765 5766 5767 5769 5770 5772 5774 5776 5779 5781 5784 5786 5788 5790 5792 5794 5795 5797 5798 5800 5802 5803 5805 5806 5807 5808 5809 5810
5764 5763 5762 5761 5760 5760 5759 5760 5760 5760 5761 5762 5763 5765 5766 5768 5769 5771 5773 5775 5777 5779 5781 5782 5784 5786 5787 5789 5791 5792 5794 5795 5796 5797 5798 5799 5799 5800
5761 5760 5759 5758 5757 5757 5757 5756 5756 5757 5757 5758 5759 5760 5761 5762 5764 5765 5767 5768 5770 5772 5774 5775 5776 5778 5779 5781 5782 5784 5785 5786 5787 5788 5789 5790 5790 5790
5758 5757 5756 5755 5754 5753 5753 5753 5753 5753 5753 5754 5754 5755 5756 5757 5758 5759 5760 5762 5763 5765 5766 5768 5769 5770 5771 5772 5774 5775 5776 5777 5778 5779 5779 5780 5780 5780
5754 5753 5752 5751 5751 5750 5749 5749 5748 5748 5749 5749 5749 5750 5750 5751 5752 5752 5753 5755 5756 5757 5758 5760 5761 5762 5763 5764 5765 5766 5767 5768 5768 5769 5769 5769 5770 5770
5750 5749 5748 5747 5746 5745 5745 5744 5744 5744 5744 5744 5744 5744 5745 5745 5746 5746 5747 5748 5749 5750 5751 5752 5753 5754 5755 5756 5756 5757 5758 5758 5758 5759 5759 5759 5759 5759
5744 5743 5742 5742 5741 5740 5739 5739 5738 5738 5738 5738 5739 5739 5739 5739 5740 5740 5740 5741 5742 5742 5743 5744 5745 5745 5746 5747 5748 5748 5748 5749 5749 5749 5749 5748 5748 5748
5737 5737 5736 5736 5735 5734 5734 5733 5733 5732 5732 5732 5733 5733 5733 5733 5733 5733 5734 5734 5734 5735 5735 5736 5736 5737 5738 5738 5739 5739 5739 5739 5739 5739 5738 5738 5737 5737
5730 5729 5729 5729 5728 5728 5727 5727 5726 5726 5726 5726 5726 5726 5726 5726 5726 5727 5727 5727 5727 5728 5728 5728 5728 5728 5729 5729 5729 5729 5729 5729 5728 5728 5728 5727 5726 5726
5721 5721 5721 5721 5721 5720 5720 5720 5719 5719 5719 5719 5719 5719 5719 5719 5719 5719 5719 5720 5720 5720 5720 5719 5719 5719 5719 5719 5719 5718 5718 5718 5717 5717 5717 5716 5715 5714
5711 5712 5712 5712 5712 5712 5712 5712 5712 5712 5712 5712 5712 5712 5712 5712 5712 5712 5712 5712 5711 5711 5711 5711 5711 5710 5710 5709 5709 5708 5707 5707 5706 5705 5705 5705 5704 5702
5701 5702 5702 5702 5703 5703 5703 5703 5703 5703 5703 5703 5703 5704 5704 5704 5703 5703 5703 5703 5703 5703 5702 5702 5701 5701 5700 5699 5698 5697 5697 5696 5695 5694 5693 5693 5692 5691
5690 5691 5692 5692 5693 5693 5693 5694 5694 5694 5694 5695 5695 5695 5694 5694 5694 5694 5694 5694 5693 5693 5692 5692 5691 5691 5690 5689 5688 5687 5685 5684 5684 5683 5682 5681 5680 5679
5678 5679 5680 5681 5682 5683 5683 5684 5684 5685 5685 5685 5685 5685 5685 5685 5685 5685 5684 5684 5684 5683 5683 5682 5681 5680 5679 5678 5677 5676 5674 5673 5671 5671 5669 5668 5667 5666
5665 5667 5668 5669 5671 5672 5672 5673 5674 5674 5675 5675 5675 5675 5675 5675 5675 5675 5674 5674 5673 5673 5672 5671 5670 5669 5668 5667 5666 5664 5663 5661 5659 5658 5657 5656 5654 5653
5652 5654 5655 5657 5658 5660 5661 5662 5662 5663 5664 5664 5664 5665 5665 5665 5665 5664 5664 5664 5663 5662 5661 5660 5659 5658 5657 5656 5654 5653 5651 5649 5647 5646 5644 5642 5641 5639
Wind_Speed
4 5 7 8 10 11 13 15 17 18 18 20 21 22 23 25 26 27 28 29 29 29 28 28 27 27 27 27 28 28 28 28 28 28 27 27 27 27
4 4 6 7 8 10 11 13 16 17 18 19 21 21 21 22 25 25 26 28 29 29 28 28 28 28 28 28 28 28 28 29 29 30 30 29 29 29
5 4 5 6 8 9 10 12 14 15 17 18 20 20 21 21 23 25 25 26 28 28 29 29 28 28 28 28 29 29 29 30 30 30 30 31 31 30
5 4 3 5 7 8 9 11 13 14 15 16 18 19 21 22 22 23 24 24 26 26 27 28 28 29 29 29 30 30 30 30 31 32 32 32 32 32
6 4 3 4 6 7 8 10 12 14 15 16 17 19 20 20 22 22 23 24 25 26 26 27 27 28 29 30 30 30 30 30 31 31 32 32 33 33
6 5 5 4 6 7 8 9 11 13 15 16 17 18 20 21 22 23 24 25 25 25 27 28 28 28 29 30 30 31 30 31 31 32 32 33 33 34
7 6 6 6 6 7 8 9 11 13 14 16 16 17 19 21 22 23 24 25 26 26 27 28 28 28 29 30 30 30 31 31 31 32 33 33 34 35
8 7 7 7 7 8 8 9 11 12 14 15 16 17 18 20 21 22 23 25 26 27 28 27 28 29 29 29 29 30 31 31 31 32 33 33 34 34
9 8 8 8 9 9 9 10 12 13 14 15 16 17 18 20 20 22 23 24 25 26 26 27 28 29 30 30 31 31 31 31 32 33 34 34 35 35
11 10 9 9 9 10 10 11 12 13 14 16 17 17 18 19 21 22 23 24 26 26 26 27 28 29 29 30 31 32 32 32 33 34 35 36 37 38
13 12 11 11 11 11 11 12 13 14 15 16 17 18 18 19 21 22 23 24 25 26 26 27 28 29 29 30 30 31 32 32 34 34 36 37 38 38
14 14 14 13 13 13 13 13 14 15 15 16 17 18 19 19 20 21 22 23 25 25 26 27 28 28 29 30 31 32 32 32 33 34 35 37 37 37
17 17 16 16 15 15 15 15 15 16 16 17 17 18 19 19 20 21 21 23 24 25 26 27 27 28 29 30 31 32 32 32 33 34 35 36 37 37
19 19 18 18 18 17 17 17 17 17 18 18 18 18 19 20 20 21 22 23 24 24 26 27 28 28 29 30 30 31 32 33 33 34 34 35 36 37
22 21 20 20 20 19 19 18 18 19 19 19 20 20 20 21 21 22 22 23 24 25 26 26 27 28 29 30 31 32 33 34 35 35 35 36 36 37
24 23 23 22 22 22 21 21 20 20 20 21 21 21 21 22 22 23 24 24 25 25 26 27 28 29 31 32 32 33 34 34 36 36 37 37 38 38
27 26 26 25 25 24 24 23 23 22 22 22 22 22 22 23 23 23 24 24 25 26 26 27 28 29 30 31 33 34 34 35 35 35 36 37 38 39
30 29 28 27 26 26 25 25 24 24 24 24 24 24 24 25 25 25 25 25 26 26 27 28 29 30 31 32 33 34 35 35 36 36 36 37 38 39
32 31 30 30 29 28 27 27 26 26 26 26 26 26 27 27 27 27 27 27 28 28 29 29 30 31 32 32 33 34 35 35 36 36 37 37 38 38
34 34 33 32 31 30 30 29 29 28 28 28 28 28 29 29 29 29 29 29 29 29 30 30 31 31 32 33 34 34 35 36 36 37 38 38 38 39
36 35 35 34 33 32 32 31 30 30 30 29 29 29 30 30 30 30 31 31 31 31 31 31 32 33 33 34 34 35 36 37 37 38 38 39 39 39
39 38 37 36 35 35 34 33 33 32 32 31 31 31 30 30 31 31 32 32 32 32 32 32 33 33 34 34 34 35 36 37 38 38 38 39 39 39
41 40 39 38 37 37 36 35 34 34 33 33 32 32 32 32 32 32 32 32 33 33 33 33 33 34 34 35 35 36 36 36 37 38 39 40 40 41
Wind_Direction
296 263 242 235 230 229 230 227 225 224 220 220 221 222 224 225 223 223 224 224 226 229 231 232 234 235 235 234 236 238 240 241 242 244 245 246 249 249
317 277 248 238 234 233 230 226 225 225 225 224 224 226 226 225 223 222 223 225 228 229 231 232 234 236 236 237 240 242 243 244 244 245 246 247 248 250
336 301 260 238 237 236 232 229 226 226 226 224 226 230 231 229 225 224 226 228 229 232 234 234 236 238 238 239 241 243 245 246 246 247 247 250 251 252
347 326 279 248 244 241 236 231 227 227 229 229 231 233 234 234 232 231 230 230 230 232 235 236 238 240 241 242 243 245 246 248 248 249 250 252 252 253
340 327 294 259 247 245 240 234 231 231 231 232 233 233 233 235 236 236 234 234 233 235 237 239 240 241 243 244 245 246 247 248 250 251 251 252 253 255
335 323 297 271 257 252 246 239 236 235 234 235 237 235 234 234 235 235 236 236 235 237 239 240 241 242 243 245 246 247 248 251 252 253 253 254 255 256
322 315 303 283 269 260 251 246 243 241 239 240 241 239 238 237 237 237 238 239 238 239 242 242 244 244 244 245 247 248 250 253 254 256 256 256 257 258
317 307 299 289 275 266 259 253 250 249 245 243 243 243 243 241 241 240 241 242 242 243 245 247 248 248 246 247 248 250 251 254 255 256 258 259 259 260
310 304 296 288 280 274 266 257 254 252 249 246 245 247 246 244 244 244 243 245 245 246 247 250 249 250 249 250 251 252 254 255 256 257 259 261 262 262
302 300 296 290 283 276 269 264 260 256 253 249 248 249 248 248 247 247 246 246 247 248 249 252 252 252 252 252 253 254 256 257 258 259 261 262 265 265
293 292 292 290 286 282 275 268 262 260 258 256 253 252 252 252 252 251 249 249 249 250 252 254 254 254 254 255 255 255 257 260 260 260 262 263 265 266
286 285 285 284 283 282 278 273 267 263 263 260 257 255 254 255 256 256 253 251 252 253 254 255 256 255 255 256 257 258 259 260 263 263 264 265 265 266
282 280 279 279 278 277 277 273 269 266 265 263 261 259 257 257 258 259 257 255 255 256 256 255 256 257 256 257 259 259 261 263 264 265 266 266 266 267
278 276 276 275 275 275 275 273 270 266 265 262 261 261 261 260 260 260 259 258 259 259 258 258 259 259 259 261 262 263 263 264 265 266 267 267 267 267
273 273 272 272 272 272 272 272 271 269 266 264 262 262 263 263 263 262 261 261 261 261 261 261 261 261 261 264 265 266 266 266 267 268 269 269 269 268
271 270 269 269 270 271 271 271 271 270 268 265 264 263 264 265 265 265 265 265 265 265 265 264 264 264 264 266 266 267 268 268 269 270 270 270 270 270
270 269 268 268 268 269 269 270 270 269 268 267 266 265 266 267 267 268 267 267 267 268 267 267 266 267 267 268 269 269 270 270 269 270 270 271 272 271
268 268 268 268 267 268 268 268 269 269 268 267 267 267 268 268 269 269 269 269 269 269 270 271 271 271 271 271 271 271 271 271 271 271 270 270 271 272
266 267 267 267 267 268 268 268 269 269 268 268 268 268 268 269 269 270 270 270 271 271 272 272 272 272 273 274 273 273 273 272 272 273 273 272 273 273
264 265 265 266 266 267 268 268 268 268 268 268 268 269 269 269 270 270 270 270 272 273 274 274 274 275 275 275 275 275 275 275 274 275 275 275 275 275
262 262 263 264 265 266 266 267 267 267 267 267 268 268 268 269 269 270 270 271 272 274 274 275 276 277 277 277 277 277 277 277 277 276 276 276 276 276
260 261 262 262 263 264 265 266 266 266 267 267 268 269 269 270 270 270 271 272 273 275 275 277 278 278 278 278 279 279 279 279 279 278 278 278 277 277
259 259 260 261 262 263 264 265 265 265 266 267 267 268 269 270 271 272 272 273 274 275 277 278 278 279 279 280 280 280 280 280 280 280 280 280 280 279